Regional Weather Roundup
Issued by NWS

Home | Current Version | Previous Version | Text Only | Print | Product List | Glossary Off
Versions: 1 2 3 4 5 6 7 8 9 10 11 12 13 14 15 16 17 18 19 20 21 22 23 24 25 26 27 28 29 30 31 32 33 34 35 36 37 38 39 40 41 42 43 44 45 46 47 48 49 50

000
ASUS43 KOAX 040502
RWRNE

WEATHER ROUNDUP FOR NEBRASKA
NATIONAL WEATHER SERVICE OMAHA NE
1200 AM CDT WED MAY 04 2016

NOTES: SATELLITE DATA IS BEING USED TO AUGMENT CLOUD COVER ABOVE
       12000 FEET.
       "FAIR" INDICATES FEW OR NO CLOUDS BELOW 12,000 FEET WITH NO
       SIGNIFICANT WEATHER AND/OR OBSTRUCTIONS TO VISIBILITY.

  * THESE STATIONS DO NOT REPORT WEATHER SUCH AS RAIN...SNOW OR FOG.

NEZ001>004-019>022-054>056-040600-
NEBRASKA PANHANDLE

CITY           SKY/WX    TMP DP  RH WIND       PRES   REMARKS
SCOTTSBLUFF    CLEAR     50  41  71 N5        30.17R
ALLIANCE       CLEAR     39  36  89 W7        30.14S WCI  34
CHADRON        CLEAR     47  42  83 SW3       30.13S
KIMBALL        CLEAR     43  38  82 NW3       30.20S
SIDNEY         CLEAR     41  35  79 NW8       30.18R
$$

NEZ057>060-069>072-079>082-040600-
SOUTHWEST NEBRASKA

CITY           SKY/WX    TMP DP  RH WIND       PRES   REMARKS
NORTH PLATTE   CLEAR     45  39  79 NW6       30.07S
IMPERIAL       CLEAR     49  38  65 W6        30.11S
MCCOOK         CLEAR     46  39  76 W6        30.07R
$$

NEZ005>010-023>029-035>040-094-040600-
NORTH CENTRAL NEBRASKA

CITY           SKY/WX    TMP DP  RH WIND       PRES   REMARKS
VALENTINE      CLEAR     51  40  65 NW8       30.05R
AINSWORTH      CLEAR     54  42  63 NW7       30.03R
BROKEN BOW     CLEAR     55  40  56 NW9       30.01F
ORD            CLEAR     50  43  77 NW7       29.96F
$$

NEZ041-046>049-061>064-073>077-083>087-040600-
SOUTH CENTRAL NEBRASKA

CITY           SKY/WX    TMP DP  RH WIND       PRES   REMARKS
GRAND ISLAND   CLEAR     54  44  69 W10       29.96F
AURORA         CLEAR     55  45  69 W12       29.95F
HASTINGS       CLEAR     52  43  71 W9        29.98F
KEARNEY *      CLEAR     52  41  66 W8        30.01S
YORK           CLEAR     52  46  82 W10       29.93F
$$

NEZ011>018-030>034-042>045-040600-
NORTHEAST NEBRASKA

CITY           SKY/WX    TMP DP  RH WIND       PRES   REMARKS
NORFOLK        CLEAR     58  41  53 N12       29.92R
ALBION         CLEAR     56  44  62 NW8       29.96R
BLAIR          CLEAR     60  45  59 W7        29.85S
COLUMBUS *     CLEAR     52  39  62 NW9       29.93R
FREMONT        CLEAR     55  46  72 W13       29.88R
TEKAMAH        CLEAR     60  45  57 NW20      29.86R
$$

NEZ050>053-065>068-078-088>093-040600-
SOUTHEAST NEBRASKA

CITY           SKY/WX    TMP DP  RH WIND       PRES   REMARKS
LINCOLN        CLEAR     59  45  59 W6        29.91S
OMAHA EPPLEY   PTCLDY    62  44  51 W10       29.84F
BEATRICE       CLEAR     56  45  66 W9        29.92F
FALLS CITY     CLEAR     57  42  57 SW10      29.88F
$$

NEZ044-045-051>053-067-040600-
OMAHA AREA

CITY           SKY/WX    TMP DP  RH WIND       PRES   REMARKS
OMAHA EPPLEY   PTCLDY    62  44  51 W10       29.84F
BLAIR          CLEAR     60  45  59 W7        29.85S
FREMONT        CLEAR     55  46  72 W13       29.88R
OFFUTT AFB     CLEAR     59  45  60 W8        29.84F
$$




USA.gov is the U.S. government's official web portal to all federal, state and local government web resources and services.